Weather Roundup
Issued by NWS

Home | Current Version | Previous Version | Graphics & Text | Print | Product List | Glossary Off
Versions: 1 2 3 4 5 6 7 8 9 10 11 12 13 14 15 16 17 18 19 20 21 22 23 24 25 26 27 28 29 30 31 32 33 34 35 36 37 38 39 40 41 42 43 44 45 46 47 48 49 50

000
NZUS93 KARX 020810
HRRWXR

CURRENT HOURLY OBSERVATIONS ACROSS
MUCH OF THE UPPER MISSISSIPPI VALLEY
NATIONAL WEATHER SERVICE LA CROSSE WI
200 AM CST MON MAR 02 2015


...SOUTHEAST MINNESOTA...


CITY           SKY/WX    TMP DP  RH WIND       PRES   REMARKS
ROCHESTER      CLEAR     14   7  73 NW13      30.41R WCI   0
ROCHESTER/MAYO FAIR      17   9  72 W14       30.41R WCI   3
WINONA         CLOUDY    23  14  68 NW8       30.43R WCI  14
AUSTIN         CLEAR     14   9  79 NW7       30.42S WCI   4
ALBERT LEA     CLEAR     12   9  85 NW6       30.43S WCI   3
DODGE CENTER   PTCLDY    16  10  79 NW10      30.41R WCI   3
PRESTON        CLEAR     15   9  78 NW13      30.41R WCI   0
OWATONNA       CLEAR     10   7  85 W6        30.43S WCI   1
FARIBAULT      CLEAR     14   9  79 W6        30.44R WCI   5
$$

...ELSEWHERE IN MINNESOTA...


CITY           SKY/WX    TMP DP  RH WIND       PRES   REMARKS
MINNEAPOLIS    CLEAR     16   7  67 NW8       30.44R WCI   5
INTNL FALLS    CLEAR      5   2  87 W6        30.28R WCI  -6
DULUTH         CLEAR      8   3  80 W10       30.30R WCI  -6
RED WING       CLEAR     19   9  63 NW7       30.43R WCI  10
REDWOOD FALLS  CLEAR     10   6  84 W7        30.46S WCI  -1
MANKATO        CLEAR     16   7  67 NW8       30.45R WCI   5
FAIRMONT       CLEAR     12   7  79 NW8       30.43F WCI   1
$$

...SOUTHWEST WISCONSIN...


CITY           SKY/WX    TMP DP  RH WIND       PRES   REMARKS
LA CROSSE      CLOUDY    12   8  84 SE3       30.42R
PRAIRIE DU CHI CLEAR     16   9  74 W9        30.44R WCI   4
BOSCOBEL       CLEAR     14   8  77 SW6       30.43R WCI   5
LONE ROCK      CLEAR     16   8  71 W9        30.41R WCI   4
PLATTEVILLE    CLEAR      9   6  87 SW5       30.41R WCI   1
FORT MC COY    PTCLDY     4   1  86 CALM      30.40R
CAMP DOUGLAS   CLEAR     13  11  92 W9        30.37R WCI   1
VIROQUA        FAIR      14  10  85 W8        30.36R WCI   3
WIS DELLS      CLEAR     16   9  74 W8        30.36R WCI   5
$$

...ELSEWHERE IN WISCONSIN...


CITY           SKY/WX    TMP DP  RH WIND       PRES   REMARKS
MILWAUKEE      CLEAR     18   6  59 W7        30.36R WCI   9
MADISON        CLEAR     16   7  67 CALM      30.37R
GREEN BAY      CLEAR     16   8  71 W10       30.31R WCI   4
EAU CLAIRE     CLEAR     16   6  65 NW10      30.39R WCI   4
BLACK RVR FLS  FAIR      20  10  65 W9        30.38R WCI   9
MEDFORD        CLEAR     12   6  77 NW7       30.28R WCI   1
WAUSAU         CLEAR     12   5  73 W8        30.28R WCI   0
WIS RAPIDS     CLEAR     14   6  70 W8        30.35R WCI   3
MARSHFIELD     CLEAR     15   7  70 NW15      30.31R WCI   0
RICE LAKE      PTCLDY    14   6  72 NW5       30.38R WCI   6
$$

...NORTHEAST IOWA...


CITY           SKY/WX    TMP DP  RH WIND       PRES   REMARKS
DECORAH        CLEAR     14   9  79 NW5       30.40R WCI   6
MASON CITY     CLEAR     12   7  80 NW9       30.45S WCI   0
CHARLES CITY   CLEAR     12   9  85 NW9       30.44R WCI   0
OELWEIN        PTCLDY     7   3  85 W8        30.44R WCI  -6
$$

...ELSEWHERE IN IOWA...


CITY           SKY/WX    TMP DP  RH WIND       PRES   REMARKS
DES MOINES     MOCLDY    20  13  74 W3        30.51R
IOWA CITY      PTCLDY    15  10  80 W9        30.50R WCI   3
FORT DODGE     PTCLDY    12   7  79 NW3       30.48R
$$

...NORTHERN ILLINOIS...


CITY           SKY/WX    TMP DP  RH WIND       PRES   REMARKS
CHICAGO-OHARE  PTCLDY    17   8  67 W9        30.39R WCI   6
CHICAGO-MIDWAY CLEAR     19   9  65 W7        30.41R WCI  10
MOLINE         PTCLDY     7   2  80 W3        30.47R
ROCKFORD       CLEAR     15   7  70 W7        30.43R WCI   5
PEORIA         CLOUDY    21  13  71 CALM      30.49R
$$

NOTE: "FAIR" INDICATES FEW OR NO CLOUDS BELOW 12,000 FEET WITH NO
SIGNIFICANT WEATHER AND/OR OBSTRUCTIONS TO VISIBILITY. WIND
SPEEDS ARE IN MILES-PER-HOUR.



USA.gov is the U.S. government's official web portal to all federal, state and local government web resources and services.